Regional Weather Roundup
Issued by NWS

Home | Current Version | Previous Version | Text Only | Print | Product List | Glossary Off
Versions: 1 2 3 4 5 6 7 8 9 10 11 12 13 14 15 16 17 18 19 20 21 22 23 24 25 26 27 28 29 30 31 32 33 34 35 36 37 38 39 40 41 42 43 44 45 46 47 48 49 50

000
ASUS43 KDMX 011001
RWRIA

WEATHER ROUNDUP FOR IOWA
NATIONAL WEATHER SERVICE DES MOINES IA
400 AM CST WED MAR 01 2017

NOTE: "FAIR" INDICATES FEW OR NO CLOUDS BELOW 12,000 FEET WITH NO
SIGNIFICANT WEATHER AND/OR OBSTRUCTIONS TO VISIBILITY.

* - THESE STATIONS ARE NOT NWS STATIONS...THUS NOT UNDER NWS
QUALITY CONTROL.  THEY ALSO DO NOT REPORT WEATHER SUCH
AS PRECIPITATION OR FOG.

IAZ001>003-012>014-020>022-031>034-043>046-011100-
   NORTHWEST IOWA

CITY           SKY/WX    TMP DP  RH WIND       PRES   REMARKS
CARROLL *      CLOUDY    34  34 100 NW16G24   29.75R FOG     WCI  23
CHEROKEE *     LGT SNOW  32  32  99 NW7       29.78R WCI  26
DENISON *      CLOUDY    32  32 100 NW15G24   29.77R FOG     WCI  22
LE MARS *      LGT SNOW  32  32 100 NW12      29.81R WCI  23
SHELDON *      LGT SNOW  32  32 100 NW13G20   29.77R WCI  22
SIOUX CITY     CLOUDY    33  30  88 NW16      29.82R WCI  23
SPENCER        LGT SNOW  32  30  92 NW13      29.75R FOG     WCI  22
STORM LAKE *   CLOUDY    32  32 100 NW13      29.75R FOG     WCI  22
$$

IAZ055>058-069>071-079>083-090>094-011100-
   SOUTHWEST IOWA

CITY           SKY/WX    TMP DP  RH WIND       PRES   REMARKS
ATLANTIC *     CLOUDY    34  34 100 NW17      29.78S WCI  23
AUDUBON *      CLOUDY    34  30  86 NW10G21   29.77R FOG     WCI  26
CLARINDA *     CLOUDY    37  34  87 NW15G22   29.83R WCI  28
COUNCIL BLFS * CLOUDY    34  34 100 NW14      29.82R WCI  24
CRESTON *      CLOUDY    36  36 100 NW16G24   29.77R FOG     WCI  26
HARLAN  *      CLOUDY    32  32 100 NW20      29.82S FOG     WCI  20
LAMONI         CLOUDY    37  35  92 NW22      29.74R WCI  26
RED OAK *      CLOUDY    36  34  93 NW14      29.81R WCI  27
SHENANDOAH *   CLOUDY    37  34  87 NW15      29.83R WCI  28
$$

IAZ047>049-059>061-072>074-084-011100-
   CENTRAL IOWA

CITY           SKY/WX    TMP DP  RH WIND       PRES   REMARKS
AMES           CLOUDY    35  35 100 NW18      29.71R FOG     WCI  24
ANKENY *       CLOUDY    36  34  93 NW18G29   29.72R FOG     WCI  25
BOONE *        CLOUDY    34  34 100 NW14G24   29.70R FOG     WCI  24
CHARITON *     CLOUDY    37  36  93 NW21G28   29.69S WCI  27
DES MOINES     DRIZZLE   37  34  89 NW18G26   29.71R FOG     WCI  27
GRINNELL*      LGT RAIN  36  35  95 NW21      29.66R WCI  25
KNOXVILLE *    CLOUDY    37  36  93 NW17G25   29.66S FOG     WCI  28
MARSHALLTOWN   LGT RAIN  35  34  96 NW16      29.66R FOG     WCI  25
NEWTON *       CLOUDY    36  34  93 NW14G22   29.67R FOG     WCI  27
PELLA *        LGT RAIN  37  36  94 NW14G20   29.68S WCI  29
PERRY *        CLOUDY    35  34  96 NW15G21   29.74R FOG     WCI  25
$$

IAZ004>006-015-016-023>025-035-036-011100-
   NORTH CENTRAL IOWA

CITY           SKY/WX    TMP DP  RH WIND       PRES   REMARKS
ALGONA *       CLOUDY    32  32 100 N15G21    29.71R WCI  22
CLARION *      CLOUDY    32  32 100 NW15      29.68S WCI  22
ESTHERVILLE    CLOUDY    30  29  96 N21G28    29.73R WCI  17
FORT DODGE *   CLOUDY    32  28  86 NW8       29.72S WCI  25
MASON CITY     FRZ RAIN  32  30  92 NW16      29.68R FOG     WCI  21
FOREST CITY *  CLOUDY    32  32 100 N15       29.68R FOG     WCI  22
WEBSTER CITY * CLOUDY    32  32 100 NW16G23   29.68S FOG     WCI  21
IOWA FALLS *   CLOUDY    34  33  96 NW15      29.68R FOG     WCI  25
$$

IAZ007>011-017>019-026>030-037>042-050>054-066-011100-
   NORTHEAST IOWA

CITY           SKY/WX    TMP DP  RH WIND       PRES   REMARKS
CEDAR RAPIDS   LGT RAIN  38  38 100 NW22      29.56S FOG     WCI  27
CHARLES CITY * LGT RAIN  34  34 100 NW15      29.63R WCI  24
CLINTON *      CLOUDY    43  43 100 NW17      29.50R FOG
DECORAH *      LGT RAIN  36  34  93 NW10      29.57R WCI  28
DUBUQUE        FOG       39  39 100 N12       29.51R VSB 1   WCI  32
MONTICELLO *   CLOUDY    41  41 100 NW10      29.53S FOG
OELWEIN *      LGT RAIN  36  36 100 NW16      29.59R WCI  26
WATERLOO       MIX PCPN  35  33  92 NW13      29.62R WCI  26
$$

IAZ064-065-067-068-078-011100-
   EAST CENTRAL IOWA

CITY           SKY/WX    TMP DP  RH WIND       PRES   REMARKS
DAVENPORT      CLOUDY    43  42  97 W17       29.52R FOG
IOWA CITY      CLOUDY    41  39  93 NW18G25   29.57S FOG
MUSCATINE *    CLOUDY    41  41 100 NW15G25   29.55F FOG
QUAD CITIES    LGT RAIN  46  43  89 W15       29.52R FOG
$$

IAZ062-063-075>077-085>089-095>099-011100-
   SOUTHEAST IOWA

CITY           SKY/WX    TMP DP  RH WIND       PRES   REMARKS
BURLINGTON     CLOUDY    42  41  96 W14G22    29.55S FOG
FAIRFIELD *    CLOUDY    39  37  93 NW18G30   29.61R WCI  30
FORT MADISON * CLOUDY    43  39  87 W17G23    29.59S FOG
KEOKUK *       CLOUDY    43  41  93 NW18      29.59R FOG
OTTUMWA        CLOUDY    40  39  97 NW15      29.63R WCI  32
WASHINGTON *   CLOUDY    41  39  93 NW21      29.61R FOG
$$

ABBREVIATIONS USED IN REMARKS
   TC - TEMPERATURES IN CELSIUS
  WCI - WIND CHILL INDEX
   HX - HEAT INDEX
  VSB - VISIBILITY
$$





USA.gov is the U.S. government's official web portal to all federal, state and local government web resources and services.